Beach, ND

1:56 AM MDT on May 28, 2017 (GMT -0600)
Beach

Weather History for K20U - October, 2012

Change the Weather History Date:

Wednesday, October 10, 2012

  Actual Average (KGDV) Record (KGDV)
Temperature  
Mean Temperature 48 °F -  
Max Temperature 66 °F 58 °F 89 °F (2015)
Min Temperature 30 °F 34 °F 28 °F (2000)
Degree Days  
Heating Degree Days 17    
Moisture  
Dew Point 30 °F    
Average Humidity 61    
Maximum Humidity 93    
Minimum Humidity 26    
Precipitation  
Precipitation 0.00 in - - ()
Sea Level Pressure  
Sea Level Pressure 29.93 in    
Wind  
Wind Speed 11 mph (West)    
Max Wind Speed 26 mph    
Max Gust Speed 37 mph    
Visibility 10 miles    
Events      
Averages and records for this station are not official NWS values.
T = Trace of Precipitation, MM = Missing Value Source: NWS Daily Summary

Daily Weather History Graph

Daily Weather History Graph

Search for Another Location

Airport or City:

Trip Planner

Search our weather history database for the weather conditions in past years. The results will help you decide how hot, cold, wet, or windy it might be!

Date:

Astronomy

Oct. 10, 2012 Rise Set
Actual Time 7:07 AM MDT 6:17 PM MDT
Civil Twilight 6:37 AM MDT 6:47 PM MDT
Nautical Twilight 6:01 AM MDT 7:22 PM MDT
Astronomical Twilight 5:26 AM MDT 7:57 PM MDT
Moon 1:27 AM MDT (10/10) 3:37 PM MDT (10/10)
Length of Visible Light 12h 10m
Length of Day
11h 09m
Waning Crescent, 26% of the Moon is Illuminated
Oct 10
Waning Crescent
Oct 15
New
Oct 21
First Quarter
Oct 29
Full
Nov 6
Last Quarter

Hourly Weather History & Observations

Time (MDT) Temp. Windchill Dew Point Humidity Pressure Visibility Wind Dir Wind Speed Gust Speed Precip Events Conditions
12:15 AM 37.4 °F 32.8 °F 23.0 °F 56% 30.04 in 10.0 mi WSW 5.8 mph - N/A   Overcast
12:35 AM 35.6 °F 31.7 °F 23.0 °F 60% 30.04 in 10.0 mi SSW 4.6 mph - N/A   Overcast
12:55 AM 35.6 °F 29.9 °F 24.8 °F 65% 30.04 in 10.0 mi SW 6.9 mph - N/A   Overcast
1:15 AM 33.8 °F 29.6 °F 24.8 °F 70% 30.04 in 10.0 mi SSW 4.6 mph - N/A   Overcast
1:35 AM 35.6 °F 29.2 °F 26.6 °F 70% 30.03 in 10.0 mi SSW 8.1 mph - N/A   Overcast
1:55 AM 35.6 °F 29.9 °F 26.6 °F 70% 30.02 in 10.0 mi SSW 6.9 mph - N/A   Overcast
2:15 AM 37.4 °F 32.8 °F 28.4 °F 70% 30.02 in 10.0 mi SSW 5.8 mph - N/A   Overcast
2:35 AM 37.4 °F 32.1 °F 28.4 °F 70% 30.01 in 10.0 mi SSW 6.9 mph - N/A   Overcast
2:55 AM 35.6 °F 29.2 °F 28.4 °F 75% 30.00 in 10.0 mi SSW 8.1 mph - N/A   Overcast
3:15 AM 35.6 °F 29.9 °F 28.4 °F 75% 29.99 in 10.0 mi South 6.9 mph - N/A   Overcast
3:35 AM 35.6 °F 28.6 °F 30.2 °F 81% 29.99 in 10.0 mi SSW 9.2 mph - N/A   Overcast
3:55 AM 35.6 °F 29.9 °F 30.2 °F 81% 29.98 in 10.0 mi SSW 6.9 mph - N/A   Mostly Cloudy
4:15 AM 32.0 °F 26.4 °F 28.4 °F 87% 29.97 in 10.0 mi South 5.8 mph - N/A   Partly Cloudy
4:35 AM 32.0 °F 26.4 °F 28.4 °F 87% 29.97 in 10.0 mi SSW 5.8 mph - N/A   Mostly Cloudy
4:55 AM 33.8 °F 28.6 °F 30.2 °F 87% 29.96 in 10.0 mi SSE 5.8 mph - N/A   Overcast
5:15 AM 32.0 °F 25.6 °F 28.4 °F 87% 29.96 in 10.0 mi South 6.9 mph - N/A   Mostly Cloudy
5:35 AM 32.0 °F 26.4 °F 28.4 °F 87% 29.95 in 10.0 mi SSE 5.8 mph - N/A   Mostly Cloudy
5:55 AM 30.2 °F 21.9 °F 28.4 °F 93% 29.94 in 10.0 mi SSE 9.2 mph - N/A   Mostly Cloudy
6:35 AM 30.2 °F 22.6 °F 28.4 °F 93% 29.92 in 10.0 mi South 8.1 mph - N/A   Scattered Clouds
6:55 AM 30.2 °F 22.6 °F 28.4 °F 93% 29.92 in 10.0 mi South 8.1 mph - N/A   Clear
7:15 AM 32.0 °F 24.8 °F 28.4 °F 87% 29.91 in 10.0 mi South 8.1 mph - N/A   Clear
7:35 AM 32.0 °F 24.2 °F 28.4 °F 87% 29.91 in 10.0 mi South 9.2 mph - N/A   Partly Cloudy
7:55 AM 32.0 °F 23.0 °F 30.2 °F 93% 29.90 in 10.0 mi SSW 11.5 mph - N/A   Partly Cloudy
8:15 AM 39.2 °F 31.2 °F 32.0 °F 75% 29.90 in 10.0 mi SW 13.8 mph - N/A   Partly Cloudy
8:35 AM 41.0 °F 33.5 °F 32.0 °F 70% 29.89 in 10.0 mi SW 13.8 mph - N/A   Partly Cloudy
8:55 AM 44.6 °F 38.8 °F 32.0 °F 61% 29.89 in 10.0 mi WSW 11.5 mph - N/A   Partly Cloudy
9:15 AM 48.2 °F - 32.0 °F 54% 29.89 in 10.0 mi SW 12.7 mph - N/A   Clear
9:35 AM 48.2 °F - 30.2 °F 50% 29.88 in 10.0 mi WSW 16.1 mph 23.0 mph N/A   Clear
9:55 AM 50.0 °F - 30.2 °F 47% 29.87 in 10.0 mi WSW 21.9 mph 26.5 mph N/A   Clear
10:15 AM 53.6 °F - 28.4 °F 38% 29.86 in 10.0 mi WSW 21.9 mph 31.1 mph N/A   Clear
10:35 AM 55.4 °F - 28.4 °F 36% 29.85 in 10.0 mi WSW 18.4 mph 31.1 mph N/A   Partly Cloudy
10:55 AM 55.4 °F - 28.4 °F 36% 29.85 in 10.0 mi WSW 23.0 mph 32.2 mph N/A   Partly Cloudy
11:15 AM 57.2 °F - 28.4 °F 33% 29.84 in 10.0 mi West 26.5 mph 34.5 mph N/A   Clear
11:35 AM 57.2 °F - 28.4 °F 33% 29.85 in 10.0 mi West 26.5 mph 36.8 mph N/A   Clear
11:55 AM 59.0 °F - 28.4 °F 31% 29.85 in 10.0 mi West 25.3 mph 34.5 mph N/A   Clear
12:15 PM 59.0 °F - 28.4 °F 31% 29.84 in 10.0 mi WSW 23.0 mph 32.2 mph N/A   Clear
12:35 PM 59.0 °F - 28.4 °F 31% 29.83 in 10.0 mi West 20.7 mph 27.6 mph N/A   Clear
12:55 PM 62.6 °F - 30.2 °F 30% 29.83 in 10.0 mi West 16.1 mph 27.6 mph N/A   Scattered Clouds
1:15 PM 62.6 °F - 28.4 °F 27% 29.82 in 10.0 mi West 20.7 mph 26.5 mph N/A   Scattered Clouds
1:35 PM 64.4 °F - 28.4 °F 26% 29.81 in 10.0 mi West 17.3 mph 25.3 mph N/A   Partly Cloudy
1:55 PM 64.4 °F - 30.2 °F 28% 29.81 in 10.0 mi West 18.4 mph 25.3 mph N/A   Scattered Clouds
2:15 PM 64.4 °F - 32.0 °F 30% 29.81 in 10.0 mi WNW 18.4 mph 26.5 mph N/A   Partly Cloudy
2:35 PM 64.4 °F - 32.0 °F 30% 29.81 in 10.0 mi WNW 19.6 mph 24.2 mph N/A   Scattered Clouds
2:55 PM 66.2 °F - 32.0 °F 28% 29.81 in 10.0 mi WNW 17.3 mph 24.2 mph N/A   Partly Cloudy
3:15 PM 66.2 °F - 30.2 °F 26% 29.81 in 10.0 mi WNW 19.6 mph 27.6 mph N/A   Clear
3:35 PM 64.4 °F - 32.0 °F 30% 29.81 in 10.0 mi NNW 20.7 mph 27.6 mph N/A   Scattered Clouds
3:55 PM 60.8 °F - 32.0 °F 34% 29.82 in 10.0 mi North 21.9 mph 27.6 mph N/A   Scattered Clouds
4:15 PM 59.0 °F - 32.0 °F 36% 29.83 in 10.0 mi NNW 18.4 mph 25.3 mph N/A   Mostly Cloudy
4:35 PM 57.2 °F - 32.0 °F 38% 29.84 in 10.0 mi North 18.4 mph 21.9 mph N/A   Mostly Cloudy
4:55 PM 55.4 °F - 32.0 °F 41% 29.85 in 10.0 mi North 16.1 mph 24.2 mph N/A   Mostly Cloudy
5:15 PM 51.8 °F - 32.0 °F 47% 29.87 in 10.0 mi North 18.4 mph 23.0 mph N/A   Mostly Cloudy
5:35 PM 50.0 °F - 32.0 °F 50% 29.88 in 10.0 mi North 19.6 mph 25.3 mph N/A   Overcast
5:55 PM 48.2 °F - 32.0 °F 54% 29.89 in 10.0 mi North 17.3 mph 26.5 mph N/A   Scattered Clouds
6:15 PM 46.4 °F 39.8 °F 32.0 °F 57% 29.90 in 10.0 mi North 16.1 mph 23.0 mph N/A   Mostly Cloudy
6:35 PM 46.4 °F 40.1 °F 32.0 °F 57% 29.91 in 10.0 mi North 15.0 mph 19.6 mph N/A   Overcast
6:55 PM 44.6 °F 37.2 °F 32.0 °F 61% 29.93 in 10.0 mi North 17.3 mph - N/A   Overcast
7:15 PM 44.6 °F 39.2 °F 32.0 °F 61% 29.94 in 10.0 mi North 10.4 mph - N/A   Overcast
7:35 PM 41.0 °F 33.1 °F 32.0 °F 70% 29.95 in 10.0 mi North 15.0 mph - N/A   Overcast
7:55 PM 41.0 °F 32.5 °F 32.0 °F 70% 29.96 in 10.0 mi North 17.3 mph 25.3 mph N/A   Overcast
8:15 PM 41.0 °F 33.1 °F 32.0 °F 70% 29.97 in 10.0 mi North 15.0 mph 20.7 mph N/A   Overcast
8:35 PM 39.2 °F 30.8 °F 32.0 °F 75% 29.99 in 10.0 mi North 15.0 mph - N/A   Overcast
8:55 PM 39.2 °F 30.2 °F 32.0 °F 75% 30.00 in 10.0 mi North 17.3 mph 23.0 mph N/A   Overcast
9:15 PM 37.4 °F 28.2 °F 32.0 °F 81% 30.02 in 10.0 mi North 16.1 mph 20.7 mph N/A   Overcast
9:35 PM 37.4 °F 28.2 °F 32.0 °F 81% 30.03 in 10.0 mi North 16.1 mph 23.0 mph N/A   Overcast
9:55 PM 37.4 °F 28.5 °F 32.0 °F 81% 30.04 in 10.0 mi North 15.0 mph - N/A   Overcast
10:15 PM 35.6 °F 26.6 °F 32.0 °F 87% 30.05 in 10.0 mi North 13.8 mph 19.6 mph N/A   Overcast
10:35 PM 37.4 °F 29.3 °F 32.0 °F 81% 30.06 in 10.0 mi North 12.7 mph - N/A   Overcast
10:55 PM 37.4 °F 28.9 °F 32.0 °F 81% 30.07 in 10.0 mi North 13.8 mph 17.3 mph N/A   Overcast
11:15 PM 37.4 °F 29.3 °F 32.0 °F 81% 30.08 in 10.0 mi North 12.7 mph - N/A   Overcast
11:35 PM 35.6 °F 28.6 °F 32.0 °F 87% 30.08 in 10.0 mi North 9.2 mph - N/A   Overcast
11:55 PM 35.6 °F 29.9 °F 32.0 °F 87% 30.09 in 10.0 mi North 6.9 mph - N/A   Overcast